Terminal Aerodrome Forecast
Issued by NWS Shreveport, LA

Home | Current Version | Previous Version | Text Only | Print | Product List | Glossary On
Versions: 1 2 3 4 5 6 7 8 9 10 11 12 13 14 15 16 17 18 19 20 21 22 23
000
FTUS44 KSHV 210520
TAFSHV
TAF
KSHV 210520Z 2106/2206 18005KT P6SM BKN100 BKN250
      TEMPO 2108/2111 BKN010 OVC070
     FM211100 17003KT P6SM VCSH OVC008
      TEMPO 2111/2115 5SM BR OVC005
     FM211500 17006KT P6SM VCSH OVC008
     FM211800 17008KT P6SM OVC015
     FM212200 18008KT P6SM VCTS OVC025CB=

USA.gov is the U.S. government's official web portal to all federal, state and local government web resources and services.